| time (UTC) | temp F | wind direction | speed MPH | gust MPH | rain 1hr in | rain 24hr in | rain mn in | humidity % | barometer mb |
| 20260505124603 | 62 | 225 | 2.0 | 7.0 | 0.00 | 0.00 | 0.00 | 80 | 1010.1 |
| 20260505123604 | 59 | 236 | 0.0 | 0.0 | 0.00 | 0.00 | 0.00 | 87 | 1010.2 |
| 20260505122604 | 57 | 232 | 0.0 | 0.0 | 0.00 | 0.00 | 0.00 | 93 | 1010.2 |
| 20260505121604 | 54 | 232 | 0.0 | 0.0 | 0.00 | 0.00 | 0.00 | 95 | 1010.4 |
| 20260505120604 | 53 | 232 | 0.0 | 0.0 | 0.00 | 0.00 | 0.00 | 96 | 1010.7 |
| 20260505115604 | 51 | 232 | 0.0 | 0.0 | 0.00 | 0.00 | 0.00 | 95 | 1010.7 |
| 20260505114625 | 50 | 232 | 0.0 | 0.0 | 0.00 | 0.00 | 0.00 | 95 | 1010.7 |
| 20260505113604 | 50 | 232 | 0.0 | 0.0 | 0.00 | 0.00 | 0.00 | 95 | 1010.5 |
| 20260505112645 | 49 | 232 | 0.0 | 0.0 | 0.00 | 0.00 | 0.00 | 95 | 1010.2 |
| 20260505111604 | 49 | 232 | 0.0 | 0.0 | 0.00 | 0.00 | 0.00 | 95 | 1010.2 |
| 20260505110603 | 48 | 231 | 0.0 | 0.0 | 0.00 | 0.00 | 0.00 | 95 | 1010.4 |
| 20260505101603 | 45 | 231 | 0.0 | 0.0 | 0.00 | 0.00 | 0.00 | 94 | 1010.5 |
| 20260505100604 | 45 | 231 | 0.0 | 0.0 | 0.00 | 0.00 | 0.00 | 94 | 1010.3 |
| 20260505095603 | 45 | 231 | 0.0 | 0.0 | 0.00 | 0.00 | 0.00 | 94 | 1010.2 |
| 20260505094604 | 45 | 231 | 0.0 | 0.0 | 0.00 | 0.00 | 0.00 | 93 | 1010.1 |
| 20260505093604 | 45 | 191 | 0.0 | 0.0 | 0.00 | 0.00 | 0.00 | 93 | 1010.2 |
| 20260505092604 | 45 | 204 | 0.0 | 0.0 | 0.00 | 0.00 | 0.00 | 93 | 1010.0 |
| 20260505091603 | 46 | 204 | 0.0 | 0.0 | 0.00 | 0.00 | 0.00 | 93 | 1009.9 |
| 20260505090604 | 46 | 204 | 0.0 | 0.0 | 0.00 | 0.00 | 0.00 | 93 | 1009.7 |
| 20260505085625 | 46 | 204 | 0.0 | 0.0 | 0.00 | 0.00 | 0.00 | 93 | 1009.6 |
| 20260505084603 | 46 | 204 | 0.0 | 0.0 | 0.00 | 0.00 | 0.00 | 92 | 1009.7 |
| 20260505083604 | 46 | 204 | 0.0 | 0.0 | 0.00 | 0.00 | 0.00 | 92 | 1009.7 |
| 20260505082603 | 46 | 204 | 0.0 | 0.0 | 0.00 | 0.00 | 0.00 | 92 | 1009.6 |
| 20260505081604 | 46 | 204 | 0.0 | 0.0 | 0.00 | 0.00 | 0.00 | 92 | 1009.8 |
| 20260505080604 | 46 | 203 | 0.0 | 0.0 | 0.00 | 0.00 | 0.00 | 92 | 1009.7 |
| 20260505075603 | 46 | 203 | 0.0 | 0.0 | 0.00 | 0.00 | 0.00 | 92 | 1009.8 |
| 20260505074604 | 46 | 204 | 0.0 | 0.0 | 0.00 | 0.00 | 0.00 | 91 | 1009.7 |
| 20260505073604 | 46 | 204 | 0.0 | 0.0 | 0.00 | 0.00 | 0.00 | 91 | 1009.7 |
| 20260505072603 | 46 | 204 | 0.0 | 0.0 | 0.00 | 0.00 | 0.00 | 91 | 1009.7 |
| 20260505071603 | 47 | 204 | 0.0 | 0.0 | 0.00 | 0.00 | 0.00 | 91 | 1009.5 |
| 20260505070604 | 47 | 204 | 0.0 | 0.0 | 0.00 | 0.00 | 0.00 | 90 | 1009.6 |
| 20260505065625 | 47 | 204 | 0.0 | 0.0 | 0.00 | 0.00 | 0.00 | 90 | 1009.8 |
| 20260505064604 | 47 | 204 | 0.0 | 0.0 | 0.00 | 0.00 | 0.00 | 90 | 1009.7 |
| 20260505063603 | 47 | 204 | 0.0 | 0.0 | 0.00 | 0.00 | 0.00 | 89 | 1009.8 |
| 20260505062604 | 47 | 203 | 0.0 | 0.0 | 0.00 | 0.00 | 0.00 | 89 | 1009.8 |
| 20260505061604 | 47 | 204 | 0.0 | 0.0 | 0.00 | 0.00 | 0.00 | 88 | 1009.9 |
| 20260505060624 | 48 | 204 | 0.0 | 0.0 | 0.00 | 0.00 | 0.00 | 88 | 1009.8 |
| 20260505055625 | 48 | 204 | 0.0 | 0.0 | 0.00 | 0.00 | 0.00 | 88 | 1010.0 |
| 20260505054604 | 48 | 204 | 0.0 | 0.0 | 0.00 | 0.00 | 0.00 | 88 | 1010.0 |
| 20260505053604 | 48 | 204 | 0.0 | 0.0 | 0.00 | 0.00 | 0.00 | 87 | 1010.1 |
| 20260505052603 | 48 | 204 | 0.0 | 0.0 | 0.00 | 0.00 | 0.00 | 87 | 1010.1 |
| 20260505051604 | 49 | 204 | 0.0 | 0.0 | 0.00 | 0.00 | 0.00 | 86 | 1010.1 |
| 20260505050604 | 49 | 204 | 0.0 | 0.0 | 0.00 | 0.00 | 0.00 | 85 | 1010.2 |
| 20260505041603 | 50 | 204 | 0.0 | 0.0 | 0.00 | 0.00 | 0.00 | 83 | 1010.4 |
| 20260505040603 | 50 | 204 | 0.0 | 0.0 | 0.00 | 0.00 | 0.00 | 82 | 1010.3 |
| 20260505035604 | 51 | 204 | 0.0 | 0.0 | 0.00 | 0.00 | 0.00 | 82 | 1010.3 |
| 20260505034604 | 51 | 203 | 0.0 | 0.0 | 0.00 | 0.00 | 0.00 | 81 | 1010.4 |
| 20260505033603 | 51 | 204 | 0.0 | 0.0 | 0.00 | 0.00 | 0.00 | 80 | 1010.4 |
| 20260505032604 | 52 | 204 | 0.0 | 0.0 | 0.00 | 0.00 | 0.00 | 79 | 1010.5 |
| 20260505031603 | 52 | 204 | 0.0 | 0.0 | 0.00 | 0.00 | 0.00 | 79 | 1010.6 |
| 20260505030604 | 52 | 204 | 0.0 | 0.0 | 0.00 | 0.00 | 0.00 | 78 | 1010.6 |
| 20260505025624 | 53 | 204 | 0.0 | 0.0 | 0.00 | 0.00 | 0.00 | 77 | 1010.6 |
| 20260505024603 | 53 | 204 | 0.0 | 0.0 | 0.00 | 0.00 | 0.00 | 75 | 1010.6 |
| 20260505023625 | 54 | 204 | 0.0 | 0.0 | 0.00 | 0.00 | 0.00 | 76 | 1010.5 |
| 20260505022603 | 54 | 204 | 0.0 | 0.0 | 0.00 | 0.00 | 0.00 | 74 | 1010.6 |
| 20260505021604 | 55 | 204 | 0.0 | 0.0 | 0.00 | 0.00 | 0.00 | 72 | 1010.5 |
| 20260505020603 | 55 | 204 | 0.0 | 0.0 | 0.00 | 0.00 | 0.00 | 71 | 1010.6 |
| 20260505015604 | 56 | 204 | 0.0 | 0.0 | 0.00 | 0.00 | 0.00 | 70 | 1010.5 |
| 20260505014624 | 57 | 204 | 0.0 | 0.0 | 0.00 | 0.00 | 0.00 | 68 | 1010.4 |
| 20260505013603 | 58 | 204 | 0.0 | 0.0 | 0.00 | 0.00 | 0.00 | 67 | 1010.4 |
| 20260505011603 | 59 | 204 | 0.0 | 0.0 | 0.00 | 0.00 | 0.00 | 63 | 1010.2 |
| 20260505005604 | 61 | 204 | 0.0 | 0.0 | 0.00 | 0.00 | 0.00 | 58 | 1009.9 |
| 20260505004604 | 63 | 204 | 0.0 | 0.0 | 0.00 | 0.00 | 0.00 | 57 | 1009.6 |
| 20260505003625 | 64 | 204 | 0.0 | 0.0 | 0.00 | 0.00 | 0.00 | 53 | 1009.6 |
| 20260505002603 | 65 | 204 | 0.0 | 4.0 | 0.00 | 0.00 | 0.00 | 51 | 1009.4 |
| 20260505001604 | 67 | 202 | 1.0 | 4.0 | 0.00 | 0.00 | 0.00 | 48 | 1009.3 |
| 20260505000603 | 68 | 202 | 1.0 | 6.0 | 0.00 | 0.00 | 0.00 | 45 | 1009.1 |
| 20260504235604 | 68 | 205 | 2.0 | 8.0 | 0.00 | 0.00 | 0.00 | 44 | 1008.9 |
| 20260504234603 | 69 | 221 | 3.0 | 10.0 | 0.00 | 0.00 | 0.00 | 43 | 1008.8 |
| 20260504233603 | 69 | 216 | 3.0 | 11.0 | 0.00 | 0.00 | 0.00 | 43 | 1008.6 |
| 20260504232603 | 70 | 223 | 4.0 | 10.0 | 0.00 | 0.00 | 0.00 | 41 | 1008.5 |
| 20260504231603 | 70 | 233 | 1.0 | 9.0 | 0.00 | 0.00 | 0.00 | 41 | 1008.4 |
| 20260504230603 | 70 | 211 | 7.0 | 17.0 | 0.00 | 0.00 | 0.00 | 40 | 1008.3 |
| 20260504225604 | 71 | 206 | 4.0 | 13.0 | 0.00 | 0.00 | 0.00 | 40 | 1008.3 |
| 20260504224603 | 71 | 220 | 5.0 | 14.0 | 0.00 | 0.00 | 0.00 | 40 | 1008.2 |
| 20260504223604 | 71 | 235 | 2.0 | 13.0 | 0.00 | 0.00 | 0.00 | 39 | 1008.2 |
| 20260504222604 | 71 | 244 | 6.0 | 14.0 | 0.00 | 0.00 | 0.00 | 39 | 1008.4 |
| 20260504221604 | 72 | 237 | 3.0 | 11.0 | 0.00 | 0.00 | 0.00 | 40 | 1008.3 |
| 20260504220603 | 72 | 208 | 3.0 | 13.0 | 0.00 | 0.00 | 0.00 | 40 | 1008.3 |
| 20260504215603 | 72 | 229 | 2.0 | 16.0 | 0.00 | 0.00 | 0.00 | 38 | 1008.5 |
| 20260504214603 | 72 | 219 | 9.0 | 17.0 | 0.00 | 0.00 | 0.00 | 38 | 1008.5 |
| 20260504213603 | 72 | 257 | 4.0 | 11.0 | 0.00 | 0.00 | 0.00 | 35 | 1008.6 |
| 20260504212604 | 73 | 219 | 5.0 | 16.0 | 0.00 | 0.00 | 0.00 | 37 | 1008.6 |
| 20260504211603 | 73 | 177 | 2.0 | 18.0 | 0.00 | 0.00 | 0.00 | 36 | 1008.6 |
| 20260504210604 | 73 | 220 | 7.0 | 14.0 | 0.00 | 0.00 | 0.00 | 36 | 1008.6 |
| 20260504205604 | 73 | 229 | 7.0 | 13.0 | 0.00 | 0.00 | 0.00 | 36 | 1008.6 |
| 20260504204624 | 73 | 314 | 3.0 | 16.0 | 0.00 | 0.00 | 0.00 | 35 | 1008.5 |
| 20260504203603 | 73 | 203 | 6.0 | 17.0 | 0.00 | 0.00 | 0.00 | 36 | 1008.5 |
| 20260504202603 | 73 | 238 | 7.0 | 13.0 | 0.00 | 0.00 | 0.00 | 35 | 1008.6 |
| 20260504201603 | 72 | 215 | 3.0 | 15.0 | 0.00 | 0.00 | 0.00 | 35 | 1008.6 |
| 20260504200603 | 72 | 243 | 4.0 | 15.0 | 0.00 | 0.00 | 0.00 | 36 | 1008.7 |
| 20260504195603 | 72 | 218 | 6.0 | 12.0 | 0.00 | 0.00 | 0.00 | 36 | 1008.7 |
| 20260504194604 | 72 | 220 | 4.0 | 18.0 | 0.00 | 0.00 | 0.00 | 36 | 1008.9 |
| 20260504193603 | 72 | 238 | 6.0 | 16.0 | 0.00 | 0.00 | 0.00 | 38 | 1009.1 |
| 20260504192604 | 72 | 294 | 9.0 | 14.0 | 0.00 | 0.00 | 0.00 | 35 | 1009.0 |
| 20260504191604 | 73 | 249 | 6.0 | 17.0 | 0.00 | 0.00 | 0.00 | 35 | 1009.1 |
| 20260504190603 | 72 | 216 | 4.0 | 19.0 | 0.00 | 0.00 | 0.00 | 35 | 1009.2 |
| 20260504185624 | 72 | 235 | 7.0 | 14.0 | 0.00 | 0.00 | 0.00 | 35 | 1009.3 |
| 20260504184603 | 72 | 219 | 8.0 | 16.0 | 0.00 | 0.00 | 0.00 | 36 | 1009.6 |
| 20260504183603 | 71 | 227 | 5.0 | 18.0 | 0.00 | 0.00 | 0.00 | 38 | 1009.8 |
| 20260504182603 | 71 | 241 | 5.0 | 18.0 | 0.00 | 0.00 | 0.00 | 37 | 1009.8 |
| 20260504181624 | 71 | 214 | 6.0 | 20.0 | 0.00 | 0.00 | 0.00 | 38 | 1009.9 |
| 20260504175624 | 71 | 217 | 8.0 | 15.0 | 0.00 | 0.00 | 0.00 | 37 | 1010.0 |
| 20260504174604 | 70 | 243 | 6.0 | 18.0 | 0.00 | 0.00 | 0.00 | 38 | 1010.1 |
| 20260504173603 | 70 | 218 | 6.0 | 17.0 | 0.00 | 0.00 | 0.00 | 40 | 1010.4 |
| 20260504172603 | 70 | 200 | 6.0 | 16.0 | 0.00 | 0.00 | 0.00 | 38 | 1010.5 |
| 20260504171624 | 69 | 221 | 5.0 | 19.0 | 0.00 | 0.00 | 0.00 | 38 | 1010.7 |
| 20260504170624 | 69 | 170 | 8.0 | 19.0 | 0.00 | 0.00 | 0.00 | 39 | 1010.6 |
| 20260504150604 | 67 | 283 | 7.0 | 17.0 | 0.00 | 0.00 | 0.00 | 39 | 1012.3 |
| 20260504140646 | 63 | 243 | 8.0 | 22.0 | 0.00 | 0.00 | 0.00 | 40 | 1012.9 |